DM4SB-4 Weather Reports


time (UTC)temp
C
wind
direction
speed
KPH
gust
KPH
rain 1hr
cm
rain 24hr
cm
rain mn
cm
humidity
%
barometer
mb
20260506014034 6 113 0.0 0.0 0.00 0.00 0.00 98 1005.0
20260506013034 5 113 0.0 0.0 0.00 0.00 0.00 98 1005.1
20260506012033 6 113 0.0 0.0 0.00 0.00 0.00 97 1004.9
20260506011033 6 113 0.0 0.0 0.00 0.00 0.00 97 1004.5
20260506010033 6 113 0.0 0.0 0.00 0.00 0.00 97 1004.5
20260506005033 6 112 0.0 0.0 0.00 0.00 0.00 97 1004.7
20260506004033 6 112 0.0 0.0 0.00 0.00 0.00 97 1004.6
20260506003033 7 112 0.0 0.0 0.00 0.00 0.00 97 1004.8
20260506002034 7 112 0.0 0.0 0.00 0.00 0.00 97 1004.9
20260506001034 7 113 0.0 0.0 0.00 0.00 0.00 96 1004.9
20260506000033 7 113 0.0 0.0 0.00 0.00 0.00 96 1005.1
20260505235033 8 113 0.0 0.0 0.00 0.00 0.00 96 1005.5
20260505234033 8 138 0.0 0.0 0.00 0.00 0.00 96 1005.5
20260505233033 8 139 0.0 0.0 0.00 0.00 0.00 96 1005.4
20260505232034 8 164 0.0 0.0 0.00 0.00 0.00 96 1005.6
20260505231034 8 141 0.0 0.0 0.00 0.00 0.00 96 1005.5
20260505230033 9 153 0.0 0.0 0.00 0.00 0.00 96 1005.7
20260505225033 8 140 0.0 0.0 0.00 0.00 0.00 96 1005.6
20260505224033 8 130 0.0 0.0 0.00 0.00 0.00 96 1005.7
20260505223033 8 110 0.0 0.0 0.00 0.00 0.00 96 1005.5
20260505222034 8 110 0.0 0.0 0.00 0.00 0.00 95 1005.7
20260505221034 8 110 0.0 0.0 0.00 0.00 0.00 95 1005.7
20260505220033 8 110 0.0 0.0 0.00 0.00 0.00 95 1005.5
20260505215033 8 112 0.0 0.0 0.00 0.00 0.18 95 1005.5
20260505214033 9 112 0.0 1.6 0.00 0.00 0.18 95 1005.4
20260505213033 10 129 0.0 0.0 0.00 0.00 0.18 95 1005.5
20260505212034 10 114 0.0 0.0 0.00 0.00 0.18 95 1005.5
20260505211033 10 113 0.0 0.0 0.00 0.00 0.18 95 1005.5
20260505210033 10 125 0.0 0.0 0.00 0.00 0.18 95 1005.6
20260505205033 10 108 0.0 0.0 0.00 0.00 0.18 95 1005.5
20260505204034 10 127 0.0 0.0 0.00 0.00 0.18 95 1005.5
20260505203034 10 127 0.0 0.0 0.00 0.00 0.18 95 1005.4
20260505202033 10 127 0.0 0.0 0.00 0.00 0.18 95 1005.4
20260505201033 10 127 0.0 0.0 0.00 0.00 0.18 94 1005.1
20260505200033 10 127 0.0 0.0 0.00 0.00 0.18 94 1005.0
20260505195033 11 126 0.0 0.0 0.00 0.00 0.18 94 1004.9
20260505194034 11 126 0.0 0.0 0.00 0.00 0.18 93 1005.0
20260505193034 11 126 0.0 0.0 0.00 0.00 0.18 93 1004.9
20260505192034 11 127 0.0 0.0 0.00 0.00 0.18 92 1004.8
20260505191033 11 104 0.0 0.0 0.00 0.00 0.18 91 1004.8
20260505190034 12 150 0.0 0.0 0.00 0.00 0.18 90 1004.7
20260505185033 12 261 0.0 0.0 0.00 0.00 0.18 89 1004.7
20260505184033 12 153 0.0 0.0 0.00 0.00 0.18 88 1004.6
20260505183033 12 159 0.0 1.6 0.00 0.00 0.18 87 1004.5
20260505180037 12 113 0.0 0.0 0.00 0.00 0.18 89 1004.4
20260505175034 12 112 0.0 0.0 0.00 0.00 0.18 88 1004.1
20260505174033 13 112 0.0 0.0 0.00 0.00 0.18 88 1004.1
20260505173033 13 112 0.0 0.0 0.00 0.00 0.18 88 1004.4
20260505172033 13 109 1.6 3.2 0.00 0.00 0.18 86 1004.3
20260505171033 14 119 0.0 0.0 0.00 0.00 0.18 86 1004.2
20260505170033 14 113 0.0 0.0 0.00 0.00 0.18 84 1004.3
20260505165034 14 117 0.0 0.0 0.00 0.00 0.18 86 1004.1
20260505164034 13 116 0.0 0.0 0.00 0.00 0.18 89 1004.4
20260505163033 13 147 0.0 3.2 0.00 0.00 0.18 86 1004.3
20260505162033 13 227 0.0 1.6 0.00 0.00 0.18 86 1004.2
20260505161033 13 151 0.0 3.2 0.00 0.00 0.18 86 1004.4
20260505153033 13 128 0.0 0.0 0.00 0.00 0.18 90 1004.7
20260505152033 12 145 0.0 3.2 0.00 0.00 0.18 89 1004.7
20260505151033 12 128 0.0 1.6 0.00 0.00 0.18 90 1004.6
20260505125033 19 105 0.0 0.0 0.00 0.00 0.00 62 1004.5
20260505124033 18 156 0.0 0.0 0.00 0.00 0.00 62 1004.5
20260505123034 18 119 0.0 3.2 0.00 0.00 0.00 60 1004.6
20260505122033 18 165 0.0 0.0 0.00 0.00 0.00 62 1004.4
20260505121033 19 109 0.0 0.0 0.00 0.00 0.00 62 1004.7
20260505120033 19 151 0.0 1.6 0.00 0.00 0.00 58 1004.5
20260505115033 20 107 0.0 1.6 0.00 0.00 0.00 55 1004.5
20260505114033 20 135 0.0 1.6 0.00 0.00 0.00 55 1004.4
20260505113033 20 143 0.0 0.0 0.00 0.00 0.00 55 1004.4
20260505112034 20 146 0.0 0.0 0.00 0.00 0.00 55 1004.3
20260505111034 20 149 0.0 0.0 0.00 0.00 0.00 54 1004.5
20260505102033 22 33 0.0 3.2 0.00 0.00 0.00 49 1005.0
20260505101034 22 193 0.0 1.6 0.00 0.00 0.00 49 1004.9
20260505100034 22 177 0.0 3.2 0.00 0.00 0.00 48 1005.1
20260505095033 21 218 0.0 1.6 0.00 0.00 0.00 49 1005.4
20260505094033 21 129 1.6 3.2 0.00 0.00 0.00 50 1005.3
20260505093033 21 204 0.0 0.0 0.00 0.00 0.00 52 1005.3
20260505092033 21 273 0.0 1.6 0.00 0.00 0.00 55 1005.4
20260505091033 21 357 0.0 0.0 0.00 0.00 0.00 58 1005.4
20260505090034 20 218 0.0 0.0 0.00 0.00 0.00 63 1005.5
20260505085034 19 232 0.0 0.0 0.00 0.00 0.00 65 1005.5
20260505084033 19 225 0.0 0.0 0.00 0.00 0.00 64 1005.6
20260505083033 18 227 0.0 0.0 0.00 0.00 0.00 69 1005.8
20260505082033 18 232 0.0 0.0 0.00 0.00 0.00 69 1005.7
20260505081034 18 228 0.0 0.0 0.00 0.00 0.00 70 1005.8
20260505080034 17 253 0.0 0.0 0.00 0.00 0.00 69 1005.7
20260505075033 18 227 0.0 1.6 0.00 0.00 0.00 66 1005.8
20260505074033 18 237 0.0 1.6 0.00 0.00 0.00 66 1006.1
20260505073033 18 323 0.0 1.6 0.00 0.00 0.00 65 1006.0
20260505072033 17 155 0.0 0.0 0.00 0.00 0.00 70 1006.1
20260505071034 18 134 0.0 1.6 0.00 0.00 0.00 71 1006.0
20260505070034 17 227 0.0 1.6 0.00 0.00 0.00 74 1006.2
20260505065033 16 223 0.0 0.0 0.00 0.00 0.00 79 1006.2
20260505064033 16 223 0.0 0.0 0.00 0.00 0.00 78 1006.1
20260505063033 15 223 0.0 0.0 0.00 0.00 0.00 78 1006.3
20260505062034 15 220 0.0 1.6 0.00 0.00 0.00 82 1006.2
20260505061034 13 216 0.0 0.0 0.00 0.00 0.00 86 1006.3
20260505060033 12 216 0.0 0.0 0.00 0.00 0.00 88 1006.3
20260505055033 10 211 0.0 0.0 0.00 0.00 0.00 95 1006.6
20260505054033 10 187 0.0 0.0 0.00 0.00 0.00 97 1006.5
20260505053033 9 187 0.0 0.0 0.00 0.00 0.00 97 1006.6
20260505052034 8 187 0.0 0.0 0.00 0.00 0.00 97 1006.6
20260505051034 8 144 0.0 0.0 0.00 0.00 0.00 98 1006.4
20260505041033 6 108 0.0 0.0 0.00 0.00 0.00 97 1006.6
20260505040033 6 109 0.0 0.0 0.00 0.00 0.00 97 1006.6
20260505035033 6 109 0.0 0.0 0.00 0.00 0.00 97 1006.6
20260505034034 6 109 0.0 0.0 0.00 0.00 0.00 97 1006.7
20260505033033 7 109 0.0 0.0 0.00 0.00 0.00 97 1007.0
20260505032033 7 109 0.0 0.0 0.00 0.00 0.00 97 1007.1
20260505031033 7 109 0.0 0.0 0.00 0.00 0.00 96 1007.2
20260505030033 7 109 0.0 0.0 0.00 0.00 0.00 96 1007.4
20260505025033 7 109 0.0 0.0 0.00 0.00 0.00 96 1007.5
20260505024034 7 109 0.0 0.0 0.00 0.00 0.00 96 1007.6
20260505023034 7 120 0.0 0.0 0.00 0.00 0.00 96 1007.6
20260505022033 7 122 0.0 0.0 0.00 0.00 0.00 95 1007.7
20260505021034 7 122 0.0 0.0 0.00 0.00 0.00 95 1007.9
20260505020034 8 122 0.0 0.0 0.00 0.00 0.00 95 1008.0
20260505015034 8 123 0.0 0.0 0.00 0.00 0.00 95 1007.8